Theta_e
343 344 346 339 321 323 312 312 319 317 318 323 325 323 322 325 320 318 340 341 342 345 350 351 353 352 351 350 348 347 348 349 349 348 347 342 337 336 336 336 337 337 337 336 335 335 337 337 339
343 342 340 331 318 311 311 317 316 320 323 327 325 324 323 322 332 335 337 342 345 348 352 353 353 353 350 350 347 348 349 348 346 347 344 337 335 334 334 335 335 336 336 337 337 336 335 335 338
342 341 331 324 319 311 312 318 320 323 325 324 322 326 324 326 335 337 344 345 347 348 351 356 353 352 351 349 349 349 347 346 344 342 341 337 335 334 334 334 335 335 335 336 337 337 335 336 337
341 337 331 318 313 316 317 320 322 322 325 326 325 322 332 339 337 342 345 345 345 346 350 354 353 352 351 350 347 343 340 339 338 337 338 336 335 337 336 334 334 335 336 335 336 336 336 336 336
338 332 320 315 315 318 322 324 324 322 323 324 324 323 329 340 344 346 346 344 346 348 350 352 353 352 351 347 343 339 338 337 339 341 338 338 339 337 335 334 334 335 336 336 335 336 336 336 335
329 330 317 311 314 320 323 326 325 324 325 326 324 325 330 344 343 345 346 346 348 347 347 347 352 352 348 343 340 338 337 337 337 338 339 338 338 337 337 336 336 336 335 335 335 335 334 334 334
325 321 315 314 315 317 321 328 324 324 324 324 330 323 332 338 344 345 346 346 346 344 341 342 345 349 344 341 338 337 336 335 334 333 334 334 336 336 334 333 334 334 334 333 333 333 333 333 332
332 325 314 316 314 314 324 326 328 326 325 333 331 325 326 337 340 345 341 339 336 334 332 336 340 342 342 340 337 336 335 335 333 330 328 328 332 330 329 331 333 331 331 331 330 331 331 331 331
331 319 313 314 315 317 325 323 329 332 328 330 331 330 332 338 338 339 335 330 332 328 330 333 337 340 340 339 338 335 333 331 329 327 326 330 330 330 329 331 330 329 328 328 328 327 328 328 330
325 315 314 320 321 320 324 324 326 326 326 326 327 329 332 335 335 332 330 329 328 327 326 329 336 338 338 339 339 336 333 332 331 331 330 327 331 330 328 328 325 324 326 325 325 324 325 327 325
324 317 321 322 325 326 324 325 328 325 322 325 324 328 331 333 332 330 328 326 324 325 330 329 336 341 339 339 340 336 335 334 333 332 332 331 329 328 328 327 326 327 325 325 324 323 323 325 326
321 324 325 325 327 326 325 328 325 327 327 331 330 331 332 332 330 330 327 326 324 325 326 326 331 340 342 343 338 337 335 333 331 331 331 328 326 326 326 326 325 325 325 324 324 323 324 325 327
322 323 326 327 327 327 328 326 326 327 331 333 332 331 331 330 331 331 329 328 326 324 324 326 330 337 343 341 339 337 336 332 333 332 332 328 325 325 325 326 325 325 323 322 322 322 323 323 324
324 324 325 327 327 328 325 326 327 329 333 330 330 330 330 330 331 331 329 327 328 326 325 328 328 334 334 335 336 336 336 334 335 331 331 330 328 328 325 325 324 323 323 323 322 322 322 322 322
325 320 324 325 326 325 328 324 324 330 332 330 329 330 330 330 331 331 331 329 331 329 328 329 327 329 332 332 333 335 335 333 334 332 333 330 330 330 329 326 324 323 324 323 322 322 322 322 323
320 320 315 323 325 326 326 317 327 332 330 329 329 330 329 331 332 332 332 331 333 330 330 330 328 328 331 334 334 333 335 334 335 335 333 330 329 330 329 326 325 325 324 323 321 321 320 321 324
317 311 313 315 325 324 324 319 327 330 330 329 330 331 330 330 332 334 333 332 333 331 331 331 329 326 328 333 333 333 334 331 335 333 333 331 329 328 330 327 327 327 323 323 322 321 322 320 322
310 311 313 313 320 323 321 320 324 329 329 328 330 332 331 331 331 334 334 333 333 332 333 333 332 330 330 333 333 331 330 331 332 331 331 332 331 329 330 328 329 326 323 322 324 323 322 320 320
315 313 313 316 321 320 319 320 321 325 327 328 330 331 332 333 336 337 335 334 333 332 332 329 330 329 329 328 325 326 327 330 329 331 332 331 330 330 331 328 328 327 324 325 325 323 322 319 320
315 314 314 317 321 320 318 317 320 324 327 330 330 330 330 332 335 338 335 334 333 332 331 328 326 326 327 328 328 327 329 328 329 331 333 333 332 331 331 331 328 328 324 325 325 325 320 320 321
315 314 314 313 318 321 317 315 317 322 325 328 331 333 333 333 334 337 339 337 335 333 331 331 329 328 329 331 330 330 331 331 328 329 330 332 332 332 331 331 330 329 327 323 325 324 323 317 321
312 317 315 314 313 308 317 307 315 319 320 324 327 328 329 330 331 332 334 340 337 334 334 336 337 335 330 333 331 331 326 324 326 328 331 332 332 332 331 331 330 330 327 327 325 323 324 322 318
315 319 317 316 313 314 312 310 313 318 316 322 325 327 328 329 331 332 334 336 340 336 333 338 340 336 334 333 333 330 330 329 329 329 330 333 333 333 331 330 330 329 328 328 328 327 325 323 321
320 319 317 316 313 305 310 310 310 314 317 321 325 327 328 329 330 334 336 337 337 336 334 339 339 338 337 335 333 333 331 330 328 329 326 327 329 331 332 329 330 331 330 329 328 329 328 326 325
319 314 304 303 304 302 312 310 312 318 321 323 323 326 328 329 330 333 333 334 334 334 335 338 340 339 338 336 334 334 333 332 331 329 328 328 327 329 331 331 331 329 331 330 330 329 329 328 326
314 313 307 298 300 302 311 305 311 320 324 326 327 327 329 328 330 334 334 335 334 335 336 337 341 339 338 337 336 336 334 330 331 331 329 328 328 329 331 331 332 332 332 331 332 329 328 329 327
315 312 317 310 311 305 307 311 317 320 322 324 325 326 327 330 331 333 335 336 336 337 338 338 337 337 339 338 337 336 335 334 331 333 335 330 333 330 331 332 332 332 333 333 333 329 330 330 330
317 319 310 312 301 298 303 307 309 315 318 323 324 324 326 328 329 332 335 336 337 338 340 340 339 336 338 339 338 337 336 335 334 335 335 334 335 335 334 333 333 333 333 333 334 333 332 331 332
315 313 314 314 311 302 300 305 318 318 322 323 324 325 325 324 327 332 334 336 337 337 338 341 339 337 337 339 339 337 336 335 335 334 334 334 335 335 334 333 333 333 333 334 334 334 333 330 330
317 315 314 308 305 310 308 308 321 323 323 325 324 325 324 324 327 331 334 336 337 337 338 339 339 338 341 341 337 337 337 336 336 335 335 336 335 335 334 333 332 331 332 333 332 330 330 328 328
Wind_Speed
11 9 4 7 7 1 8 9 3 8 4 5 5 6 9 7 8 7 7 6 6 8 9 12 8 6 5 3 2 1 3 3 5 4 5 7 8 9 11 12 12 13 12 11 10 9 8 8 8
7 5 6 5 4 5 8 5 7 7 8 7 6 2 3 10 7 12 10 7 7 8 7 9 9 7 5 4 2 3 6 5 4 5 6 6 6 7 8 9 10 11 11 11 11 10 9 9 9
5 5 6 4 3 10 10 3 9 9 3 2 3 2 2 6 6 5 10 7 6 6 6 10 8 7 6 5 7 8 7 6 5 4 4 4 5 6 6 7 9 10 10 11 12 11 11 11 10
5 7 6 4 10 7 10 8 7 5 4 2 0 5 7 4 2 4 9 6 6 6 6 12 7 6 7 9 9 9 8 7 6 5 2 3 5 6 6 5 8 9 10 10 11 10 11 11 12
5 5 3 6 7 6 6 6 2 3 2 2 1 5 4 5 5 9 7 4 3 3 4 14 6 7 9 10 10 9 9 8 9 11 4 4 7 8 8 5 8 9 11 11 11 11 11 11 11
5 4 2 9 10 6 4 3 1 3 3 5 2 4 5 7 7 7 5 3 2 3 1 8 9 8 11 10 10 9 10 10 9 10 10 8 8 9 9 9 10 11 11 11 11 10 10 11 11
4 6 8 7 9 5 3 3 5 2 3 5 5 1 5 8 6 5 4 4 3 2 2 6 8 12 10 9 9 10 10 9 9 9 7 6 6 6 7 7 9 10 10 11 12 12 12 11 10
3 3 3 3 7 11 6 4 2 3 7 4 1 1 5 9 9 7 6 4 3 3 1 2 4 10 11 14 8 9 8 8 7 6 5 2 4 1 3 6 10 9 9 10 11 12 13 13 11
5 2 8 8 2 9 7 4 2 2 3 3 3 3 6 11 10 8 6 5 1 5 3 3 1 4 3 8 10 11 8 6 5 3 2 7 4 4 2 8 6 7 9 9 11 13 14 14 15
7 9 11 5 4 5 6 5 4 4 4 5 7 3 6 12 11 9 6 3 2 1 1 4 2 4 5 3 4 2 4 6 6 7 7 5 5 6 6 2 1 1 7 6 9 9 12 13 7
3 10 4 4 0 5 3 3 2 5 3 3 5 7 11 12 10 9 6 3 0 3 2 2 4 4 3 4 2 1 2 2 4 6 6 5 4 5 4 4 5 6 6 7 9 8 7 10 8
2 3 1 3 4 2 2 1 4 8 4 5 4 5 11 12 11 9 6 5 3 3 3 4 4 6 3 1 3 2 1 2 3 5 6 4 4 4 5 5 6 5 6 8 7 6 8 8 8
6 4 2 2 5 5 2 7 8 7 8 2 3 8 12 11 10 9 6 3 3 4 4 6 4 3 2 5 1 1 1 0 3 3 7 6 6 5 6 5 5 5 6 7 7 7 7 8 7
4 4 3 5 5 6 8 6 4 3 8 8 8 11 11 11 10 8 8 6 5 3 5 6 5 5 5 2 2 2 1 2 1 4 6 6 5 6 6 6 6 7 7 7 7 8 7 7 7
3 8 5 6 4 4 6 13 9 3 8 12 11 11 11 11 11 11 7 6 6 6 5 5 3 3 2 3 3 1 2 1 1 3 4 6 6 6 7 5 6 7 6 8 6 6 6 6 5
6 3 5 6 4 4 7 7 5 5 10 13 12 11 12 13 13 10 8 6 6 5 7 4 2 4 3 2 1 2 1 2 1 2 3 4 4 5 5 6 6 7 5 6 7 7 7 7 5
5 8 8 3 1 1 6 12 8 3 7 9 10 12 13 13 14 11 9 9 9 9 8 6 4 3 3 3 3 2 1 5 2 3 3 3 4 5 6 5 6 7 5 6 7 8 7 7 6
10 9 9 8 6 5 9 9 7 4 5 8 9 10 12 13 14 11 12 11 11 11 9 8 4 3 2 2 4 2 5 5 4 4 3 3 3 4 5 5 6 7 6 6 7 8 7 5 6
8 7 8 7 6 8 9 10 10 10 5 5 9 9 10 11 11 8 7 11 13 13 13 9 6 5 4 4 4 4 4 3 5 4 5 5 5 4 4 6 5 6 5 6 7 7 6 6 8
5 8 10 1 6 7 10 8 7 7 7 5 4 3 5 8 10 10 11 12 14 15 12 11 12 10 6 5 4 4 3 4 5 4 4 6 6 6 5 5 5 5 6 4 7 7 7 5 5
7 10 9 9 4 2 14 9 8 4 2 5 5 2 2 5 7 7 10 16 17 18 16 15 12 8 8 9 5 5 4 6 5 5 5 5 6 6 6 6 5 5 6 6 5 6 6 7 4
8 8 4 4 10 9 7 4 12 8 3 9 11 9 7 7 8 9 9 14 17 18 16 15 11 10 8 9 6 5 5 5 4 4 3 5 4 6 6 6 6 5 6 5 5 4 7 5 7
7 4 6 4 4 8 11 9 9 5 10 11 9 9 9 9 10 11 10 7 16 15 15 11 10 9 9 8 6 5 5 3 3 3 2 3 4 6 6 5 6 6 7 5 6 7 6 7 6
3 8 5 6 5 1 7 8 9 10 9 9 8 10 9 10 11 9 9 9 8 12 15 10 10 10 10 9 7 7 4 4 4 3 4 3 3 3 3 5 5 6 7 8 7 7 9 8 8
8 7 4 5 6 8 4 9 9 9 7 6 5 9 10 10 10 8 7 7 7 10 12 12 10 9 10 9 8 7 5 4 5 4 2 5 3 3 2 4 5 6 6 8 8 9 10 10 10
3 7 6 10 10 12 6 6 7 4 5 4 3 9 10 11 12 10 9 6 7 8 11 12 9 8 10 9 8 6 6 5 4 4 5 4 4 3 3 5 6 7 8 8 9 9 9 10 10
6 5 5 7 7 8 6 7 7 4 4 3 5 9 10 10 10 9 9 6 6 7 9 11 7 7 8 9 8 7 6 6 4 4 5 3 3 4 5 6 8 9 10 10 10 10 11 11 11
7 3 6 5 6 13 12 10 9 10 7 5 5 8 8 7 8 8 7 6 5 7 9 10 7 5 6 8 9 7 6 7 7 6 7 6 6 7 8 9 9 10 10 11 11 11 12 11 10
5 9 3 4 5 9 9 11 8 7 7 6 6 8 8 8 10 7 6 5 5 5 9 8 7 4 5 6 7 6 6 7 7 7 7 7 7 8 9 10 10 11 11 11 11 13 14 15 14
5 5 4 5 8 4 6 3 6 5 5 3 5 6 7 6 6 5 6 2 4 5 7 8 8 6 2 2 5 6 6 7 7 7 8 8 8 8 9 10 10 11 11 11 12 13 14 14 14
Wind_Direction
166 191 239 245 222 132 86 92 89 89 135 57 68 15 46 22 3 43 124 106 128 122 138 162 160 160 152 145 104 66 72 48 35 81 78 73 61 46 40 36 34 30 30 29 21 11 3 349 335
168 204 228 271 266 126 85 91 88 69 85 105 124 147 52 78 58 113 141 143 150 133 137 133 147 147 146 128 101 83 69 61 61 80 91 83 76 61 50 43 32 23 16 11 14 9 8 4 358
215 248 274 323 338 44 89 61 82 98 101 156 153 16 90 81 102 114 92 139 132 146 114 106 140 143 135 119 97 91 83 70 62 66 84 86 64 47 38 32 26 19 9 12 11 23 13 5 0
244 194 195 9 69 70 97 98 116 144 121 133 73 99 106 27 120 103 132 150 167 134 135 114 136 137 116 115 104 89 70 50 30 3 356 48 33 12 358 13 13 10 15 9 9 7 3 358 352
233 242 89 78 88 117 127 122 140 69 36 41 95 104 70 92 120 134 144 181 122 143 134 123 138 128 124 116 102 82 64 45 36 27 49 47 12 6 5 15 9 18 5 3 356 357 357 355 350
212 279 109 67 79 113 137 156 306 338 48 82 228 130 92 128 155 152 153 149 95 94 37 119 130 132 123 114 97 81 64 57 48 44 43 43 31 39 34 32 17 12 0 0 359 359 355 352 347
360 59 47 72 99 152 141 179 245 30 342 67 70 238 94 169 143 159 161 137 142 118 135 131 138 119 116 105 97 78 69 71 63 53 45 39 45 47 37 28 23 11 8 5 356 351 347 345 344
339 69 123 42 77 89 136 191 41 345 51 59 314 315 102 157 169 172 169 159 120 87 21 260 211 147 178 144 94 85 78 72 58 49 36 353 154 116 60 330 49 22 11 3 354 344 337 329 321
266 131 70 77 151 88 133 215 158 79 256 204 169 296 30 131 168 187 184 176 125 56 10 25 336 141 176 105 119 143 126 126 170 147 60 249 22 18 336 65 28 20 7 354 349 340 330 314 275
296 64 64 41 77 69 143 221 152 219 207 217 206 169 151 162 179 191 202 221 132 199 91 24 303 158 159 143 136 117 80 44 33 28 8 8 19 14 327 88 78 338 352 307 339 330 308 272 327
16 60 76 111 262 314 135 206 194 237 266 247 211 162 176 181 193 203 216 246 279 115 100 102 159 204 246 125 169 154 62 47 94 46 10 49 351 4 7 346 5 352 17 360 342 339 343 340 327
285 84 344 85 164 231 210 247 223 242 18 12 231 170 183 196 194 216 215 177 165 168 132 161 114 175 227 257 216 114 267 14 38 62 11 33 16 12 354 8 355 355 2 352 350 345 345 325 319
343 43 220 202 204 227 198 233 246 246 235 249 220 188 198 204 212 199 206 195 167 174 138 122 118 114 173 223 151 230 277 17 45 35 55 25 24 13 9 12 2 4 354 356 350 355 348 333 316
349 314 260 225 205 198 230 245 247 188 198 196 199 201 207 214 218 215 202 194 187 161 142 98 143 149 164 209 244 268 223 113 308 42 37 53 28 18 23 17 6 4 357 356 349 355 339 334 326
298 286 186 201 214 236 255 239 223 253 178 204 207 210 217 224 218 229 223 208 183 154 116 133 132 136 211 173 212 245 217 145 354 43 62 36 23 46 346 21 8 6 353 350 354 351 344 346 330
278 226 343 107 197 142 245 331 126 149 200 218 217 218 217 232 236 224 213 199 167 141 137 158 123 134 162 121 252 277 162 252 282 337 2 10 36 36 357 11 19 357 347 3 359 2 352 2 345
166 2 22 88 204 338 252 330 90 118 227 249 229 226 224 229 234 235 221 204 173 151 144 163 145 150 158 157 257 251 288 251 260 282 296 6 357 16 340 16 18 336 351 10 2 1 3 3 347
352 354 359 10 45 254 277 292 324 181 212 264 264 249 234 232 236 219 216 208 169 150 149 150 157 131 176 244 250 278 258 258 260 263 261 264 322 352 332 358 1 333 353 1 2 354 0 1 357
321 328 342 22 36 301 15 339 356 25 27 233 251 253 254 244 242 223 205 194 166 164 151 142 143 161 187 228 258 237 264 262 247 254 259 269 287 299 318 327 346 341 6 355 353 348 356 6 2
286 303 30 101 37 301 348 336 36 24 27 17 338 270 267 261 258 227 193 195 185 178 154 171 175 171 180 172 206 262 301 281 299 289 272 265 265 281 279 314 324 10 339 5 356 353 338 4 28
77 355 353 350 327 215 320 131 70 74 23 50 78 84 303 286 291 278 226 192 192 186 178 184 181 168 176 178 191 216 247 235 236 224 235 230 247 272 275 283 300 317 293 2 336 359 349 335 346
3 8 327 337 331 18 335 56 70 23 40 78 62 55 41 17 6 350 317 195 195 187 197 191 168 171 181 184 194 222 287 305 353 284 322 293 262 278 276 264 273 292 321 322 325 344 321 310 331
34 324 343 326 344 295 27 284 59 66 42 62 57 48 37 19 12 6 342 305 171 182 201 194 174 171 174 187 220 210 233 266 286 296 296 268 273 276 275 258 271 282 287 332 302 299 306 304 313
137 254 245 244 263 21 29 311 75 35 17 30 43 50 39 26 34 36 31 62 139 178 197 178 177 179 186 190 197 222 240 266 301 318 312 290 296 302 228 277 270 284 290 279 290 299 282 281 296
242 292 303 342 350 28 70 269 36 30 28 18 34 47 46 34 43 51 68 101 139 176 191 189 189 187 194 189 202 212 224 239 257 272 310 323 316 325 29 277 268 282 286 285 284 283 284 278 278
28 324 349 327 349 332 148 355 38 23 51 84 78 65 49 41 53 67 76 93 140 160 180 199 190 192 195 198 211 210 213 232 242 214 316 310 330 316 337 282 278 278 279 281 281 273 273 285 277
127 266 22 286 211 275 354 19 150 79 96 95 81 60 49 45 50 72 90 96 114 154 181 197 181 198 201 202 209 211 216 237 274 276 260 279 296 287 256 278 282 285 285 283 282 272 279 279 276
294 89 238 224 320 319 342 294 38 1 1 26 74 52 49 42 49 56 81 98 123 156 172 187 178 199 216 210 211 211 222 235 244 252 261 282 281 272 280 284 284 284 282 280 278 280 280 277 278
182 206 244 299 285 321 318 345 55 359 2 9 41 48 39 28 39 34 67 99 130 165 171 174 190 154 167 191 212 223 236 243 250 259 265 268 272 276 280 284 283 283 284 284 283 283 285 288 293
294 341 289 300 329 355 280 319 50 12 12 29 44 60 47 34 50 49 60 68 121 165 169 185 198 211 151 173 222 229 245 252 260 267 270 269 273 282 285 287 288 292 295 296 294 299 306 309 313